| time (UTC) | temp F | wind direction | speed MPH | gust MPH | rain 1hr in | rain 24hr in | rain mn in | humidity % | barometer mb |
| 20260506040107 | 65 | 245 | 0.0 | 5.0 | 0.00 | 0.00 | 0.00 | 63 | 1006.9 |
| 20260506033030 | 65 | 21 | 3.0 | 8.0 | 0.00 | 0.00 | 0.00 | 63 | 1006.5 |
| 20260506031530 | 66 | 79 | 1.0 | 6.0 | 0.00 | 0.00 | 0.00 | 61 | 1006.2 |
| 20260506024605 | 67 | 304 | 3.0 | 12.0 | 0.00 | 0.00 | 0.00 | 59 | 1005.8 |
| 20260506023107 | 69 | 289 | 5.0 | 15.0 | 0.00 | 0.00 | 0.00 | 58 | 1005.7 |
| 20260506021556 | 70 | 284 | 6.0 | 14.0 | 0.00 | 0.00 | 0.00 | 56 | 1005.7 |
| 20260506020026 | 71 | 282 | 4.0 | 10.0 | 0.00 | 0.00 | 0.00 | 56 | 1005.7 |
| 20260506014531 | 71 | 289 | 3.0 | 7.0 | 0.00 | 0.00 | 0.00 | 55 | 1005.6 |
| 20260506013031 | 72 | 281 | 6.0 | 15.0 | 0.00 | 0.00 | 0.00 | 54 | 1005.4 |
| 20260506004532 | 73 | 285 | 8.0 | 19.0 | 0.00 | 0.00 | 0.00 | 52 | 1005.4 |
| 20260506003030 | 73 | 284 | 7.0 | 16.0 | 0.00 | 0.00 | 0.00 | 52 | 1005.3 |
| 20260506001541 | 74 | 292 | 7.0 | 18.0 | 0.00 | 0.00 | 0.00 | 51 | 1005.4 |
| 20260506000030 | 74 | 287 | 8.0 | 18.0 | 0.00 | 0.00 | 0.00 | 50 | 1005.4 |
| 20260505234531 | 75 | 294 | 8.0 | 20.0 | 0.00 | 0.00 | 0.00 | 50 | 1005.5 |
| 20260505233038 | 75 | 292 | 8.0 | 18.0 | 0.00 | 0.00 | 0.00 | 50 | 1005.5 |
| 20260505231531 | 75 | 291 | 8.0 | 18.0 | 0.00 | 0.00 | 0.00 | 50 | 1005.6 |
| 20260505230037 | 75 | 291 | 9.0 | 20.0 | 0.00 | 0.00 | 0.00 | 50 | 1005.7 |
| 20260505224531 | 75 | 292 | 9.0 | 19.0 | 0.00 | 0.00 | 0.00 | 50 | 1005.8 |
| 20260505220030 | 75 | 291 | 8.0 | 17.0 | 0.00 | 0.00 | 0.00 | 50 | 1006.2 |
| 20260505214532 | 75 | 294 | 9.0 | 19.0 | 0.00 | 0.00 | 0.00 | 49 | 1006.4 |
| 20260505213029 | 74 | 292 | 8.0 | 17.0 | 0.00 | 0.00 | 0.00 | 51 | 1006.4 |
| 20260505211530 | 74 | 292 | 8.0 | 17.0 | 0.00 | 0.00 | 0.00 | 51 | 1006.6 |
| 20260505210029 | 74 | 291 | 8.0 | 19.0 | 0.00 | 0.00 | 0.00 | 52 | 1006.7 |
| 20260505204531 | 73 | 293 | 8.0 | 18.0 | 0.00 | 0.00 | 0.00 | 51 | 1006.9 |
| 20260505203032 | 72 | 292 | 9.0 | 18.0 | 0.00 | 0.00 | 0.00 | 52 | 1007.0 |
| 20260505200031 | 72 | 294 | 8.0 | 19.0 | 0.00 | 0.00 | 0.00 | 53 | 1007.1 |
| 20260505193103 | 71 | 298 | 9.0 | 21.0 | 0.00 | 0.00 | 0.00 | 54 | 1007.4 |
| 20260505191605 | 70 | 301 | 9.0 | 18.0 | 0.00 | 0.00 | 0.00 | 55 | 1007.5 |
| 20260505190029 | 70 | 298 | 8.0 | 18.0 | 0.00 | 0.00 | 0.00 | 55 | 1007.6 |
| 20260505181529 | 69 | 294 | 9.0 | 21.0 | 0.00 | 0.00 | 0.00 | 58 | 1007.8 |
| 20260505174530 | 67 | 298 | 9.0 | 18.0 | 0.00 | 0.00 | 0.00 | 60 | 1007.8 |
| 20260505173103 | 67 | 294 | 8.0 | 18.0 | 0.00 | 0.00 | 0.00 | 60 | 1007.9 |
| 20260505171531 | 67 | 296 | 7.0 | 16.0 | 0.00 | 0.00 | 0.00 | 61 | 1007.8 |
| 20260505170106 | 66 | 294 | 8.0 | 19.0 | 0.00 | 0.00 | 0.00 | 62 | 1007.8 |
| 20260505164530 | 65 | 291 | 8.0 | 21.0 | 0.00 | 0.00 | 0.00 | 64 | 1007.8 |
| 20260505163032 | 64 | 291 | 8.0 | 18.0 | 0.00 | 0.00 | 0.00 | 65 | 1007.9 |
| 20260505161532 | 64 | 293 | 7.0 | 16.0 | 0.00 | 0.00 | 0.00 | 66 | 1007.9 |
| 20260505151533 | 62 | 291 | 6.0 | 15.0 | 0.00 | 0.00 | 0.00 | 70 | 1007.6 |
| 20260505124532 | 58 | 284 | 5.0 | 11.0 | 0.00 | 0.00 | 0.00 | 76 | 1006.3 |
| 20260505123032 | 58 | 285 | 5.0 | 13.0 | 0.00 | 0.00 | 0.00 | 75 | 1006.0 |
| 20260505121608 | 59 | 283 | 4.0 | 10.0 | 0.00 | 0.00 | 0.00 | 74 | 1005.9 |
| 20260505120030 | 60 | 280 | 5.0 | 11.0 | 0.00 | 0.00 | 0.00 | 72 | 1005.8 |
| 20260505114528 | 61 | 280 | 8.0 | 16.0 | 0.00 | 0.00 | 0.00 | 72 | 1005.7 |
| 20260505111528 | 60 | 281 | 4.0 | 8.0 | 0.00 | 0.00 | 0.00 | 75 | 1005.5 |
| 20260505101613 | 63 | 282 | 4.0 | 9.0 | 0.00 | 0.00 | 0.00 | 69 | 1005.1 |
| 20260505100108 | 64 | 267 | 6.0 | 15.0 | 0.00 | 0.00 | 0.00 | 67 | 1004.9 |
| 20260505093104 | 65 | 265 | 9.0 | 20.0 | 0.00 | 0.00 | 0.00 | 67 | 1004.7 |
| 20260505091530 | 65 | 272 | 9.0 | 18.0 | 0.00 | 0.00 | 0.00 | 66 | 1004.6 |
| 20260505090106 | 65 | 268 | 9.0 | 18.0 | 0.00 | 0.00 | 0.00 | 66 | 1004.5 |
| 20260505084532 | 65 | 269 | 8.0 | 16.0 | 0.00 | 0.00 | 0.00 | 66 | 1004.4 |
| 20260505083031 | 65 | 272 | 6.0 | 16.0 | 0.00 | 0.00 | 0.00 | 67 | 1004.4 |
| 20260505081541 | 66 | 279 | 6.0 | 14.0 | 0.00 | 0.00 | 0.00 | 65 | 1004.4 |
| 20260505080034 | 65 | 273 | 6.0 | 15.0 | 0.00 | 0.00 | 0.00 | 66 | 1004.4 |
| 20260505074603 | 65 | 279 | 4.0 | 15.0 | 0.00 | 0.00 | 0.00 | 68 | 1004.3 |
| 20260505073036 | 64 | 277 | 4.0 | 9.0 | 0.00 | 0.00 | 0.00 | 69 | 1004.2 |
| 20260505071535 | 65 | 291 | 4.0 | 8.0 | 0.00 | 0.00 | 0.00 | 68 | 1004.1 |
| 20260505064528 | 67 | 314 | 1.0 | 6.0 | 0.00 | 0.00 | 0.00 | 61 | 1003.9 |
| 20260505063037 | 68 | 278 | 6.0 | 15.0 | 0.00 | 0.00 | 0.00 | 60 | 1003.7 |
| 20260505061533 | 68 | 277 | 8.0 | 14.0 | 0.00 | 0.00 | 0.00 | 59 | 1003.6 |
| 20260505060040 | 69 | 282 | 8.0 | 17.0 | 0.00 | 0.00 | 0.00 | 56 | 1003.6 |
| 20260505053032 | 69 | 274 | 6.0 | 11.0 | 0.00 | 0.00 | 0.00 | 55 | 1003.6 |
| 20260505051534 | 70 | 277 | 4.0 | 18.0 | 0.00 | 0.00 | 0.00 | 53 | 1003.5 |
| 20260505050107 | 70 | 269 | 4.0 | 13.0 | 0.00 | 0.00 | 0.00 | 51 | 1003.4 |
| 20260505041530 | 72 | 273 | 7.0 | 18.0 | 0.00 | 0.00 | 0.00 | 49 | 1002.5 |